EW6496 Weather Reports


Display with metric or nautical units.
time (UTC)temp
F
wind
direction
speed
MPH
gust
MPH
rain 1hr
in
rain 24hr
in
rain mn
in
humidity
%
barometer
mb
20190220213802 37 175 9.0 24.0 0.00 0.01 0.01 30 1003.4
20190220213301 37 204 17.0 30.0 0.00 0.01 0.01 26 1003.4
20190220212802 38 165 18.0 30.0 0.00 0.01 0.01 23 1003.4
20190220212302 39 68 4.0 27.0 0.00 0.01 0.01 24 1003.4
20190220211802 38 128 13.0 27.0 0.00 0.01 0.01 25 1003.4
20190220211303 38 193 12.0 26.0 0.00 0.01 0.01 25 1003.4
20190220210816 38 185 17.0 26.0 0.00 0.01 0.01 25 1003.5
20190220210306 38 113 11.0 28.0 0.00 0.01 0.01 26 1003.4
20190220205816 37 125 17.0 30.0 0.00 0.01 0.01 27 1003.2
20190220205316 37 125 19.0 31.0 0.00 0.01 0.01 26 1003.2
20190220204804 37 152 21.0 31.0 0.00 0.01 0.01 27 1003.2
20190220204307 36 166 4.0 26.0 0.00 0.01 0.01 28 1003.4
20190220203805 35 202 11.0 26.0 0.00 0.01 0.01 26 1003.4
20190220203304 36 214 9.0 26.0 0.00 0.01 0.01 27 1003.4
20190220202804 36 214 17.0 26.0 0.00 0.01 0.01 26 1003.2
20190220202309 37 202 14.0 28.0 0.00 0.01 0.01 26 1003.2
20190220201800 37 180 9.0 29.0 0.00 0.01 0.01 27 1003.1
20190220201302 36 161 15.0 33.0 0.00 0.01 0.01 27 1003.2
20190220200800 36 111 7.0 33.0 0.00 0.01 0.01 27 1003.2
20190220200259 37 140 14.0 21.0 0.00 0.01 0.01 28 1003.2
20190220195805 36 135 9.0 23.0 0.00 0.01 0.01 28 1003.2
20190220195302 35 166 10.0 30.0 0.00 0.01 0.01 30 1003.4
20190220194805 35 203 10.0 30.0 0.00 0.01 0.01 31 1003.2
20190220194301 35 202 15.0 26.0 0.00 0.01 0.01 32 1003.4
20190220193802 34 200 16.0 26.0 0.00 0.01 0.01 32 1003.5
20190220193259 35 154 12.0 26.0 0.01 0.01 0.01 32 1003.6
20190220192801 35 173 11.0 26.0 0.01 0.01 0.01 31 1003.5
20190220192259 35 123 9.0 26.0 0.01 0.01 0.01 34 1003.7
20190220191800 36 161 17.0 26.0 0.01 0.01 0.01 32 1003.7
20190220191259 36 130 7.0 21.0 0.01 0.02 0.01 31 1003.8
20190220190803 36 131 13.0 17.0 0.01 0.02 0.01 35 1003.9
20190220190258 35 140 7.0 17.0 0.01 0.02 0.01 35 1003.8
20190220185800 35 178 6.0 19.0 0.01 0.02 0.01 34 1003.9
20190220185258 34 116 5.0 21.0 0.01 0.02 0.01 37 1003.9
20190220184758 33 158 8.0 21.0 0.01 0.02 0.01 39 1003.9
20190220184258 33 221 8.0 23.0 0.01 0.02 0.01 43 1003.9
20190220183758 32 180 17.0 23.0 0.01 0.02 0.01 39 1004.1
20190220183258 33 168 10.0 21.0 0.00 0.01 0.00 39 1004.1
20190220182757 33 196 9.0 21.0 0.00 0.01 0.00 42 1004.1
20190220182258 33 196 4.0 21.0 0.00 0.01 0.00 41 1003.9
20190220181758 33 199 9.0 17.0 0.00 0.01 0.00 41 1004.1
20190220181258 32 176 6.0 23.0 0.00 0.01 0.00 42 1004.1
20190220180757 33 145 9.0 15.0 0.00 0.01 0.00 41 1003.9
20190220180257 32 182 1.0 15.0 0.00 0.01 0.00 43 1004.2
20190220175758 32 121 1.0 23.0 0.00 0.01 0.00 45 1004.3
20190220175257 31 133 4.0 23.0 0.00 0.01 0.00 45 1004.3
20190220174758 30 103 9.0 18.0 0.00 0.01 0.00 46 1004.3
20190220174257 29 172 7.0 24.0 0.00 0.01 0.00 45 1004.3
20190220173759 29 169 9.0 24.0 0.00 0.01 0.00 45 1004.2
20190220173256 28 196 15.0 21.0 0.00 0.01 0.00 48 1004.2
20190220172756 28 203 12.0 18.0 0.00 0.01 0.00 50 1004.2
20190220172256 28 202 10.0 16.0 0.00 0.01 0.00 53 1004.3
20190220171757 27 186 11.0 17.0 0.00 0.01 0.00 58 1004.4
20190220171256 27 147 11.0 17.0 0.00 0.01 0.00 62 1004.4
20190220170757 26 135 8.0 13.0 0.00 0.01 0.00 66 1004.5
20190220170257 25 123 6.0 11.0 0.00 0.01 0.00 71 1004.5
20190220165757 24 113 5.0 9.0 0.00 0.01 0.00 73 1004.6
20190220165257 24 79 1.0 7.0 0.00 0.01 0.00 75 1004.6
20190220164756 23 79 3.0 9.0 0.00 0.01 0.00 77 1004.6
20190220164255 22 79 5.0 9.0 0.00 0.01 0.00 79 1004.6
20190220163756 21 90 2.0 11.0 0.00 0.01 0.00 80 1004.6
20190220163255 21 71 5.0 11.0 0.00 0.01 0.00 80 1004.5
20190220162755 20 80 8.0 11.0 0.00 0.01 0.00 81 1004.6
20190220162255 20 83 4.0 11.0 0.00 0.01 0.00 81 1004.8
20190220161756 19 107 7.0 11.0 0.00 0.01 0.00 83 1004.6
20190220161254 19 116 5.0 11.0 0.00 0.01 0.00 85 1004.6
20190220160756 18 138 1.0 11.0 0.00 0.01 0.00 86 1004.6
20190220160255 18 152 6.0 10.0 0.00 0.01 0.00 87 1004.6
20190220155754 17 142 7.0 9.0 0.00 0.01 0.00 88 1004.6
20190220155254 16 121 0.0 6.0 0.00 0.01 0.00 88 1004.5
20190220154755 15 121 2.0 6.0 0.00 0.01 0.00 89 1004.4
20190220154253 15 76 3.0 6.0 0.00 0.01 0.00 88 1004.4
20190220153753 14 76 0.0 6.0 0.00 0.01 0.00 88 1004.4
20190220153255 14 97 1.0 6.0 0.00 0.01 0.00 88 1004.4
20190220152755 14 97 1.0 6.0 0.00 0.01 0.00 89 1004.6
20190220152254 13 97 4.0 6.0 0.00 0.01 0.00 89 1004.8
20190220151753 13 97 0.0 6.0 0.00 0.01 0.00 88 1004.6
20190220151253 12 97 0.0 3.0 0.00 0.01 0.00 88 1004.6
20190220150754 12 97 0.0 11.0 0.00 0.01 0.00 88 1004.6
20190220150253 12 97 2.0 13.0 0.00 0.01 0.00 89 1004.8
20190220145753 13 93 6.0 9.0 0.00 0.01 0.00 90 1004.9
20190220145253 11 271 0.0 0.0 0.00 0.01 0.00 89 1004.8
20190220144753 11 271 0.0 4.0 0.00 0.01 0.00 89 1004.4
20190220144254 10 271 0.0 9.0 0.00 0.01 0.00 88 1004.2
20190220143754 10 271 3.0 9.0 0.00 0.01 0.00 89 1004.1
20190220143252 10 259 3.0 6.0 0.00 0.01 0.00 88 1004.1
20190220142752 9 248 2.0 9.0 0.00 0.01 0.00 88 1003.9
20190220142252 9 245 3.0 9.0 0.00 0.01 0.00 88 1003.9
20190220141753 8 244 2.0 7.0 0.00 0.01 0.00 88 1003.8
20190220141252 8 244 1.0 7.0 0.00 0.01 0.00 88 1004.1
20190220140752 8 254 2.0 5.0 0.00 0.01 0.00 88 1004.2
20190220140251 8 235 1.0 4.0 0.00 0.01 0.00 88 1004.3
20190220135751 8 257 0.0 4.0 0.00 0.01 0.00 88 1004.1
20190220135252 8 257 1.0 4.0 0.00 0.01 0.00 88 1003.9
20190220134751 8 257 2.0 6.0 0.00 0.01 0.00 88 1003.9
20190220134251 8 257 0.0 6.0 0.00 0.01 0.00 88 1003.9
20190220133751 8 252 2.0 6.0 0.00 0.01 0.00 88 1003.8
20190220133251 8 238 0.0 0.0 0.00 0.01 0.00 88 1003.9
20190220132751 8 283 0.0 0.0 0.00 0.01 0.00 88 1003.9
20190220132250 8 283 0.0 0.0 0.00 0.01 0.00 88 1003.8
20190220131752 9 283 0.0 0.0 0.00 0.01 0.00 88 1003.9
20190220131251 9 283 0.0 0.0 0.00 0.01 0.00 88 1003.8
20190220130752 9 283 0.0 0.0 0.00 0.01 0.00 88 1003.7
20190220130250 9 283 0.0 0.0 0.00 0.01 0.00 88 1003.7
20190220125749 9 283 0.0 0.0 0.00 0.01 0.00 88 1003.6
20190220125249 9 283 0.0 4.0 0.00 0.01 0.00 89 1003.5
20190220124749 9 283 0.0 4.0 0.00 0.01 0.00 89 1003.7
20190220124250 9 266 0.0 7.0 0.00 0.01 0.00 89 1003.4
20190220123749 9 265 3.0 9.0 0.00 0.01 0.00 89 1003.4
20190220123251 9 281 2.0 9.0 0.00 0.01 0.00 89 1003.1
20190220122749 9 223 2.0 9.0 0.00 0.01 0.00 89 1003.1
20190220122250 9 248 1.0 5.0 0.00 0.01 0.00 89 1003.1
20190220121749 10 248 1.0 6.0 0.00 0.01 0.00 89 1003.1
20190220121250 10 254 3.0 6.0 0.00 0.01 0.00 89 1003.2
20190220120749 10 300 1.0 4.0 0.00 0.01 0.00 89 1003.2
20190220120248 10 300 1.0 0.0 0.00 0.01 0.00 89 1003.0
20190220115749 10 300 0.0 1.0 0.00 0.01 0.00 89 1002.9
20190220115248 10 330 0.0 1.0 0.00 0.01 0.00 89 1003.1
20190220114749 10 330 0.0 0.0 0.00 0.01 0.00 89 1003.1
20190220114248 10 330 0.0 0.0 0.00 0.01 0.00 89 1003.1
20190220113751 10 330 0.0 0.0 0.00 0.01 0.00 88 1003.1
20190220113250 10 330 0.0 0.0 0.00 0.01 0.00 89 1003.1
20190220112748 10 330 0.0 0.0 0.00 0.01 0.00 89 1003.2
20190220112248 10 330 0.0 0.0 0.00 0.01 0.00 88 1003.2
20190220111749 10 330 0.0 0.0 0.00 0.01 0.00 88 1003.4
20190220111248 10 330 0.0 2.0 0.00 0.01 0.00 88 1003.4
20190220110748 10 330 0.0 6.0 0.00 0.01 0.00 88 1003.6
20190220110249 10 330 1.0 9.0 0.00 0.01 0.00 88 1003.5
20190220105747 10 330 1.0 10.0 0.00 0.01 0.00 88 1003.4
20190220105247 11 329 4.0 10.0 0.00 0.01 0.00 88 1003.5
20190220104747 11 21 0.0 2.0 0.00 0.01 0.00 88 1003.5
20190220104246 11 21 0.0 0.0 0.00 0.01 0.00 88 1003.5
20190220103747 11 21 0.0 0.0 0.00 0.01 0.00 87 1003.5
20190220103246 11 21 0.0 0.0 0.00 0.01 0.00 87 1003.5
20190220102747 11 21 0.0 0.0 0.00 0.01 0.00 87 1003.6
20190220102248 11 21 0.0 0.0 0.00 0.01 0.00 88 1003.6
20190220101747 12 21 0.0 0.0 0.00 0.01 0.00 88 1003.7
20190220101246 12 21 0.0 0.0 0.00 0.01 0.00 88 1003.8
20190220100747 12 21 0.0 0.0 0.00 0.01 0.00 88 1003.8
20190220100246 12 21 0.0 0.0 0.00 0.01 0.00 88 1003.7
20190220095745 13 21 0.0 0.0 0.00 0.01 0.00 88 1003.8
20190220095246 13 21 0.0 0.0 0.00 0.01 0.00 88 1003.7
20190220094745 13 21 0.0 0.0 0.00 0.01 0.00 88 1003.9
20190220094246 13 21 0.0 0.0 0.00 0.01 0.00 88 1003.9
20190220093745 13 21 0.0 0.0 0.00 0.01 0.00 88 1004.1
20190220093246 14 21 0.0 0.0 0.00 0.01 0.00 88 1004.2
20190220092744 14 21 0.0 0.0 0.00 0.01 0.00 88 1004.3
20190220092246 14 21 0.0 0.0 0.00 0.01 0.00 88 1004.3
20190220091746 14 21 0.0 4.0 0.00 0.01 0.00 89 1004.3
20190220091245 15 21 0.0 4.0 0.00 0.01 0.00 88 1004.4
20190220090745 15 320 0.0 0.0 0.00 0.01 0.00 88 1004.3
20190220090243 15 320 0.0 0.0 0.00 0.01 0.00 88 1004.3
20190220085746 15 320 0.0 0.0 0.00 0.01 0.00 89 1004.3
20190220085244 16 320 0.0 0.0 0.00 0.01 0.00 89 1004.4
20190220084745 16 320 0.0 0.0 0.00 0.01 0.00 89 1004.5
20190220084244 16 320 0.0 0.0 0.00 0.01 0.00 89 1004.5
20190220083746 17 320 0.0 0.0 0.00 0.01 0.00 89 1004.6
20190220083244 17 320 0.0 0.0 0.00 0.01 0.00 89 1004.6
20190220082244 17 320 0.0 0.0 0.00 0.01 0.00 89 1004.6
20190220081742 17 320 0.0 0.0 0.00 0.01 0.00 89 1004.6
20190220081244 17 320 0.0 0.0 0.00 0.01 0.00 89 1004.8
20190220080743 17 320 0.0 0.0 0.00 0.01 0.00 89 1004.8
20190220080244 17 320 0.0 0.0 0.00 0.01 0.00 89 1004.6
20190220075743 17 320 0.0 0.0 0.00 0.01 0.00 89 1004.9
20190220075244 17 320 0.0 0.0 0.00 0.01 0.00 89 1005.0
20190220074744 17 320 0.0 0.0 0.00 0.01 0.00 89 1005.1
20190220074243 17 320 0.0 0.0 0.00 0.01 0.00 88 1005.1
20190220073742 17 320 0.0 0.0 0.00 0.01 0.00 88 1005.1
20190220073243 18 320 0.0 0.0 0.00 0.01 0.00 88 1005.2
20190220072743 18 320 0.0 0.0 0.00 0.01 0.00 88 1005.2
20190220072244 18 320 0.0 0.0 0.00 0.01 0.00 88 1005.1
20190220071743 18 320 0.0 0.0 0.00 0.01 0.00 88 1005.1
20190220071241 18 320 0.0 0.0 0.00 0.01 0.00 87 1005.1
20190220070743 18 320 0.0 0.0 0.00 0.01 0.00 87 1005.1
20190220070242 18 320 0.0 0.0 0.00 0.01 0.00 87 1005.2
20190220065741 18 320 0.0 0.0 0.00 0.01 0.01 87 1005.3
20190220065242 18 320 0.0 0.0 0.00 0.01 0.01 87 1005.3
20190220064741 18 320 0.0 0.0 0.00 0.01 0.01 87 1005.4
20190220064241 18 320 0.0 0.0 0.00 0.01 0.01 87 1005.4
20190220063742 18 320 0.0 0.0 0.00 0.01 0.01 87 1005.6
20190220063242 18 320 0.0 0.0 0.00 0.01 0.01 86 1005.6
20190220062742 19 320 0.0 0.0 0.00 0.01 0.01 87 1005.6
20190220062241 19 320 0.0 0.0 0.00 0.01 0.01 87 1005.7
20190220061740 19 320 0.0 0.0 0.00 0.01 0.01 86 1005.8
20190220061241 19 320 0.0 0.0 0.00 0.01 0.01 86 1005.9
20190220060740 19 320 0.0 0.0 0.00 0.01 0.01 86 1005.8
20190220060241 19 320 0.0 0.0 0.00 0.01 0.01 86 1005.9
20190220055741 19 320 0.0 0.0 0.00 0.01 0.01 87 1005.9
20190220055242 19 320 0.0 0.0 0.00 0.01 0.01 86 1006.0
20190220054741 19 320 0.0 0.0 0.00 0.01 0.01 86 1006.0
20190220054240 19 320 0.0 0.0 0.00 0.01 0.01 86 1006.0
20190220053740 19 320 0.0 0.0 0.00 0.01 0.01 86 1006.1
20190220053240 19 320 0.0 0.0 0.00 0.01 0.01 86 1006.3
20190220052739 19 320 0.0 0.0 0.00 0.01 0.01 86 1006.4
20190220052240 19 320 0.0 0.0 0.00 0.01 0.01 86 1006.4
20190220051739 19 320 0.0 0.0 0.00 0.01 0.01 86 1006.5
20190220051240 19 320 0.0 6.0 0.00 0.01 0.01 86 1006.5
20190220050739 19 320 0.0 6.0 0.00 0.01 0.01 86 1006.6
20190220050240 19 320 3.0 6.0 0.00 0.01 0.01 86 1006.6
20190220045740 19 320 0.0 5.0 0.00 0.01 0.01 86 1006.6
20190220045238 19 320 0.0 1.0 0.00 0.01 0.01 86 1006.7
20190220044741 19 320 0.0 0.0 0.00 0.01 0.01 86 1006.7
20190220044240 19 320 0.0 2.0 0.00 0.01 0.01 85 1006.7
20190220043742 19 320 0.0 3.0 0.00 0.01 0.01 85 1006.7
20190220043245 19 320 1.0 4.0 0.00 0.01 0.01 85 1006.8
20190220042741 19 320 0.0 6.0 0.00 0.01 0.01 85 1006.9
20190220042239 19 320 1.0 6.0 0.00 0.01 0.01 85 1006.8
20190220041742 20 320 4.0 9.0 0.00 0.01 0.01 85 1006.9
20190220041240 20 320 2.0 9.0 0.00 0.01 0.01 84 1006.9
20190220040758 20 320 0.0 9.0 0.00 0.01 0.01 84 1006.8
20190220040239 20 320 4.0 10.0 0.00 0.01 0.01 84 1006.9
20190220035739 20 320 4.0 11.0 0.00 0.01 0.01 84 1006.8
20190220035240 20 310 6.0 11.0 0.00 0.01 0.01 84 1006.9
20190220034740 20 302 3.0 9.0 0.00 0.01 0.01 84 1006.9
20190220034242 20 306 5.0 11.0 0.00 0.01 0.01 84 1006.8
20190220033739 20 300 4.0 10.0 0.00 0.01 0.01 84 1006.9
20190220033240 20 323 6.0 10.0 0.00 0.01 0.01 84 1006.8
20190220032738 20 321 5.0 11.0 0.00 0.01 0.01 84 1006.8
20190220032251 20 321 4.0 11.0 0.00 0.01 0.01 84 1006.9
20190220031738 20 326 7.0 12.0 0.00 0.01 0.01 84 1006.9
20190220031238 20 323 5.0 12.0 0.00 0.01 0.01 84 1006.9
20190220030739 20 314 4.0 12.0 0.00 0.01 0.01 84 1006.9
20190220030239 20 323 4.0 12.0 0.00 0.01 0.01 84 1006.9
20190220025751 20 340 3.0 9.0 0.00 0.01 0.01 84 1007.1
20190220025238 20 0 2.0 5.0 0.00 0.01 0.01 85 1006.9
20190220024738 20 0 1.0 6.0 0.00 0.01 0.01 85 1007.1
20190220024238 20 0 2.0 6.0 0.00 0.01 0.01 85 1006.9
20190220023737 20 0 0.0 6.0 0.00 0.01 0.01 85 1006.9
20190220023237 20 0 2.0 6.0 0.00 0.01 0.01 85 1006.9
20190220022737 20 1 2.0 9.0 0.00 0.01 0.01 85 1006.8
20190220022238 20 0 2.0 13.0 0.00 0.01 0.01 85 1006.8
20190220021749 20 7 0.0 13.0 0.00 0.01 0.01 85 1006.9
20190220021238 20 0 5.0 15.0 0.00 0.01 0.01 85 1006.9
20190220020749 20 25 7.0 15.0 0.00 0.01 0.01 85 1006.9
20190220020250 20 21 6.0 15.0 0.00 0.01 0.01 85 1006.9
20190220015736 20 0 9.0 15.0 0.00 0.01 0.01 85 1007.1
20190220015237 21 20 9.0 16.0 0.00 0.01 0.01 85 1007.2
20190220014736 21 11 8.0 16.0 0.00 0.01 0.01 85 1007.1
20190220014235 21 31 9.0 17.0 0.00 0.01 0.01 85 1007.1
20190220013737 21 21 7.0 19.0 0.00 0.01 0.01 84 1007.1
20190220013248 21 0 9.0 21.0 0.00 0.01 0.01 84 1006.8
20190220012736 21 0 12.0 21.0 0.00 0.01 0.01 83 1006.8
20190220012248 21 0 9.0 17.0 0.00 0.01 0.01 82 1006.7
20190220011736 21 358 12.0 23.0 0.00 0.01 0.01 82 1006.7
20190220011248 21 0 10.0 23.0 0.00 0.01 0.01 81 1006.7
20190220010734 21 340 14.0 21.0 0.00 0.01 0.01 81 1006.7
20190220010235 21 0 12.0 21.0 0.00 0.01 0.01 80 1006.7
20190220005742 21 0 11.0 21.0 0.00 0.01 0.01 79 1006.7
20190220005234 22 0 6.0 17.0 0.00 0.01 0.01 79 1006.7
20190220004734 22 16 9.0 15.0 0.00 0.01 0.01 78 1006.7
20190220004234 22 17 7.0 15.0 0.00 0.01 0.01 78 1006.7
20190220003735 22 337 7.0 18.0 0.00 0.01 0.01 77 1006.6
20190220003234 22 17 6.0 19.0 0.00 0.01 0.01 77 1006.7
20190220002733 22 0 10.0 19.0 0.00 0.01 0.01 77 1006.7
20190220002233 22 0 12.0 19.0 0.00 0.01 0.01 77 1006.6
20190220001733 22 0 12.0 22.0 0.00 0.01 0.01 76 1006.6
20190220001233 22 341 14.0 22.0 0.00 0.01 0.01 76 1006.6
20190220000734 22 340 11.0 23.0 0.00 0.01 0.01 77 1006.6
20190220000231 22 0 12.0 23.0 0.00 0.01 0.01 77 1006.7
20190219235733 22 329 15.0 23.0 0.00 0.01 0.01 77 1006.6
20190219235232 22 340 10.0 27.0 0.00 0.01 0.01 76 1006.6
20190219234732 22 330 18.0 27.0 0.00 0.01 0.01 75 1006.6
20190219234231 22 327 17.0 23.0 0.00 0.01 0.01 75 1006.6
20190219233731 23 341 9.0 23.0 0.00 0.01 0.01 73 1006.6
20190219233233 23 337 10.0 17.0 0.00 0.01 0.01 72 1006.6
20190219232731 23 0 10.0 17.0 0.00 0.01 0.01 73 1006.6
20190219232231 23 355 8.0 15.0 0.00 0.01 0.01 73 1006.5
20190219231732 23 333 8.0 17.0 0.00 0.01 0.01 73 1006.5
20190219231233 23 1 9.0 17.0 0.00 0.01 0.01 72 1006.6
20190219230731 23 10 8.0 15.0 0.00 0.01 0.01 71 1006.6
20190219230231 23 6 7.0 13.0 0.00 0.01 0.01 71 1006.5
20190219225731 23 343 3.0 11.0 0.00 0.01 0.01 71 1006.5
20190219225230 23 0 6.0 14.0 0.00 0.01 0.01 69 1006.6
20190219224731 23 42 11.0 13.0 0.00 0.01 0.01 69 1006.6
20190219224231 24 0 9.0 17.0 0.00 0.01 0.01 69 1006.6
20190219223731 24 44 13.0 17.0 0.00 0.01 0.01 66 1006.5
20190219223229 24 35 2.0 11.0 0.00 0.01 0.01 66 1006.5
20190219222730 24 4 3.0 15.0 0.00 0.01 0.01 65 1006.5
20190219222229 24 42 8.0 15.0 0.00 0.01 0.01 64 1006.6
20190219221729 25 125 8.0 11.0 0.00 0.01 0.01 64 1006.6
20190219221230 25 104 2.0 13.0 0.00 0.01 0.01 64 1006.7
20190219220729 25 106 7.0 13.0 0.00 0.01 0.01 64 1006.8
20190219220230 25 54 1.0 11.0 0.00 0.01 0.01 65 1006.8
20190219215729 25 28 6.0 11.0 0.00 0.01 0.01 64 1006.7
20190219215231 25 82 2.0 13.0 0.00 0.01 0.01 65 1006.6
20190219214728 24 28 2.0 14.0 0.00 0.01 0.01 64 1006.6
20190219214228 24 52 6.0 14.0 0.00 0.01 0.01 66 1006.8